Location: Bronnegerveen
(52.9548°N, 6.8388°E)
Time: 02:43:39
(UTC+00:00)

Cosmos 1300 Rocket - Pass Details

Date: 15 June 2025
Orbit: 597 x 618 km, 82.5° (Epoch: 07 July)

Event Time Altitude Azimuth Distance (km) Brightness Sun altitude
Rises 00:11:31 0° 343° (NNW) 2,901 8.2 -13.3°
Reaches altitude 10° 00:13:52 10° 334° (NNW) 1,993 7.0 -13.2°
Maximum altitude 00:17:54 36° 269° (W) 991 4.5 -13.1°
Enters shadow 00:20:34 18° 213° (SSW) 1,515 5.0 -13.0°
